Location: Newark
(48.4546°N, 21.8195°E)
Time: 10:25:40
(UTC+00:00)

X-37B - Visible Passes

Search period start: 30 September 2020 00:00
Search period end: 10 October 2020 00:00
Orbit: 386 x 387 km, 45.0° (Epoch: 18 September)

Date Brightness Start Highest point End Pass type
(mag) Time Alt. Az. Time Alt. Az. Time Alt. Az.
02 Oct 3.0 17:38:00 10° S 17:38:37 12° S 17:38:37 12° S visible
03 Oct 3.1 18:14:30 10° SW 18:15:15 15° SSW 18:15:15 15° SSW visible
04 Oct 2.2 17:16:28 10° SSW 17:18:51 20° SSE 17:19:29 19° SE visible
05 Oct 1.8 17:53:37 10° SW 17:55:54 31° SSW 17:55:54 31° SSW visible
06 Oct 1.9 16:55:22 10° SW 16:58:07 27° SSE 16:59:59 16° ESE visible
06 Oct 3.3 18:31:20 10° WSW 18:32:15 17° WSW 18:32:15 17° WSW visible
07 Oct 1.2 17:32:52 10° WSW 17:35:54 42° S 17:36:16 40° SSE visible
08 Oct 1.6 16:34:30 10° SW 16:37:26 35° SSE 16:40:16 11° E visible
08 Oct 2.4 18:10:44 10° WSW 18:12:32 28° WSW 18:12:32 28° WSW visible
09 Oct 1.2 17:12:13 10° WSW 17:15:16 45° S 17:16:30 28° SE visible
09 Oct 4.0 18:48:46 10° W 18:48:46 10° W 18:48:46 10° W visible
